| time (UTC) | temp F | wind direction | speed knots | gust knots | rain 1hr in | rain 24hr in | rain mn in | humidity % | barometer mb |
| 20260509222737 | 61 | 241 | 9.6 | 11.3 | 0.00 | 0.00 | 0.00 | 60 | |
| 20260509222232 | 62 | 202 | 4.3 | 8.7 | 0.00 | 0.00 | 0.00 | 60 | |
| 20260509221728 | 61 | 226 | 4.3 | 7.8 | 0.00 | 0.00 | 0.00 | 60 | |
| 20260509221225 | 61 | 269 | 5.2 | 6.1 | 0.00 | 0.00 | 0.00 | 60 | |
| 20260509220720 | 63 | 214 | 5.2 | 9.6 | 0.00 | 0.00 | 0.00 | 58 | |
| 20260509220217 | 63 | 272 | 4.3 | 7.8 | 0.00 | 0.00 | 0.00 | 57 | |
| 20260509215713 | 62 | 265 | 9.6 | 11.3 | 0.00 | 0.00 | 0.00 | 58 | |
| 20260509215210 | 63 | 244 | 5.2 | 7.8 | 0.00 | 0.00 | 0.00 | 56 | |
| 20260509214707 | 64 | 193 | 2.6 | 8.7 | 0.00 | 0.00 | 0.00 | 55 | |
| 20260509214204 | 63 | 234 | 7.0 | 16.5 | 0.00 | 0.00 | 0.00 | 56 | |
| 20260509213701 | 64 | 262 | 3.5 | 8.7 | 0.00 | 0.00 | 0.00 | 55 | |
| 20260509213156 | 63 | 279 | 2.6 | 8.7 | 0.00 | 0.00 | 0.00 | 56 | |
| 20260509212654 | 63 | 201 | 3.5 | 7.8 | 0.00 | 0.00 | 0.00 | 56 | |
| 20260509212151 | 62 | 239 | 4.3 | 6.1 | 0.00 | 0.00 | 0.00 | 56 | |
| 20260509211646 | 60 | 193 | 6.1 | 13.9 | 0.00 | 0.00 | 0.00 | 60 | |
| 20260509211143 | 61 | 269 | 2.6 | 9.6 | 0.00 | 0.00 | 0.00 | 59 | |
| 20260509210640 | 61 | 278 | 7.0 | 8.7 | 0.00 | 0.00 | 0.00 | 58 | |
| 20260509210137 | 61 | 334 | 3.5 | 7.8 | 0.00 | 0.00 | 0.00 | 59 | |
| 20260509205632 | 61 | 230 | 4.3 | 14.8 | 0.00 | 0.00 | 0.00 | 57 | |
| 20260509205127 | 62 | 274 | 7.8 | 11.3 | 0.00 | 0.00 | 0.00 | 56 | |
| 20260509204623 | 62 | 249 | 9.6 | 12.2 | 0.00 | 0.00 | 0.00 | 56 | |
| 20260509204120 | 62 | 277 | 9.6 | 16.5 | 0.00 | 0.00 | 0.00 | 56 | |
| 20260509203615 | 62 | 199 | 7.0 | 12.2 | 0.00 | 0.00 | 0.00 | 57 | |
| 20260509203109 | 62 | 193 | 1.7 | 11.3 | 0.00 | 0.00 | 0.00 | 59 | |
| 20260509202608 | 61 | 157 | 7.0 | 11.3 | 0.00 | 0.00 | 0.00 | 59 | |
| 20260509202104 | 61 | 207 | 11.3 | 13.9 | 0.00 | 0.00 | 0.00 | 58 | |
| 20260509201559 | 61 | 274 | 4.3 | 12.2 | 0.00 | 0.00 | 0.00 | 59 | |
| 20260509201058 | 61 | 185 | 5.2 | 9.6 | 0.00 | 0.00 | 0.00 | 58 | |
| 20260509200556 | 61 | 280 | 10.4 | 13.9 | 0.00 | 0.00 | 0.00 | 58 | |
| 20260509200053 | 61 | 260 | 12.2 | 16.5 | 0.00 | 0.00 | 0.00 | 59 | |
| 20260509195548 | 61 | 259 | 7.0 | 11.3 | 0.00 | 0.00 | 0.00 | 58 | |
| 20260509195043 | 62 | 300 | 2.6 | 7.8 | 0.00 | 0.00 | 0.00 | 58 | |
| 20260509194538 | 61 | 267 | 7.8 | 11.3 | 0.00 | 0.00 | 0.00 | 59 | |
| 20260509194036 | 60 | 257 | 1.7 | 6.1 | 0.00 | 0.00 | 0.00 | 60 | |
| 20260509193536 | 61 | 235 | 1.7 | 2.6 | 0.00 | 0.00 | 0.00 | 59 | |
| 20260509193033 | 61 | 246 | 4.3 | 6.1 | 0.00 | 0.00 | 0.00 | 59 | |
| 20260509192530 | 60 | 254 | 7.0 | 8.7 | 0.00 | 0.00 | 0.00 | 58 | |
| 20260509192025 | 60 | 267 | 4.3 | 7.8 | 0.00 | 0.00 | 0.00 | 58 | |
| 20260509191519 | 61 | 264 | 3.5 | 8.7 | 0.00 | 0.00 | 0.00 | 58 | |
| 20260509191015 | 61 | 222 | 2.6 | 7.8 | 0.00 | 0.00 | 0.00 | 57 | |
| 20260509190512 | 61 | 261 | 4.3 | 7.8 | 0.00 | 0.00 | 0.00 | 57 | |
| 20260509190010 | 61 | 210 | 0.0 | 6.1 | 0.00 | 0.00 | 0.00 | 56 | |
| 20260509185507 | 60 | 243 | 3.5 | 5.2 | 0.00 | 0.00 | 0.00 | 57 | |
| 20260509185004 | 61 | 241 | 4.3 | 6.1 | 0.00 | 0.00 | 0.00 | 56 | |
| 20260509184503 | 61 | 236 | 4.3 | 9.6 | 0.00 | 0.00 | 0.00 | 56 | |
| 20260509183958 | 60 | 254 | 3.5 | 9.6 | 0.00 | 0.00 | 0.00 | 56 | |
| 20260509183452 | 61 | 268 | 7.8 | 11.3 | 0.00 | 0.00 | 0.00 | 56 | |
| 20260509182949 | 61 | 228 | 3.5 | 6.1 | 0.00 | 0.00 | 0.00 | 56 | |
| 20260509182445 | 61 | 254 | 0.9 | 3.5 | 0.00 | 0.00 | 0.00 | 58 | |
| 20260509181943 | 61 | 232 | 5.2 | 6.1 | 0.00 | 0.00 | 0.00 | 55 | |
| 20260509181441 | 61 | 228 | 3.5 | 7.8 | 0.00 | 0.00 | 0.00 | 56 | |
| 20260509180938 | 60 | 244 | 5.2 | 8.7 | 0.00 | 0.00 | 0.00 | 56 | |
| 20260509180433 | 59 | 201 | 4.3 | 6.1 | 0.00 | 0.00 | 0.00 | 56 | |
| 20260509175931 | 59 | 248 | 2.6 | 5.2 | 0.00 | 0.00 | 0.00 | 56 | |
| 20260509175427 | 59 | 207 | 1.7 | 6.1 | 0.00 | 0.00 | 0.00 | 57 | |
| 20260509174923 | 58 | 146 | 2.6 | 8.7 | 0.00 | 0.00 | 0.00 | 57 | |
| 20260509174419 | 58 | 223 | 6.1 | 7.8 | 0.00 | 0.00 | 0.00 | 57 | |
| 20260509173915 | 59 | 214 | 0.9 | 5.2 | 0.00 | 0.00 | 0.00 | 57 | |
| 20260509173409 | 59 | 232 | 2.6 | 5.2 | 0.00 | 0.00 | 0.00 | 57 | |
| 20260509172906 | 58 | 265 | 1.7 | 6.1 | 0.00 | 0.00 | 0.00 | 57 | |
| 20260509172403 | 58 | 225 | 2.6 | 3.5 | 0.00 | 0.00 | 0.00 | 58 | |
| 20260509171859 | 58 | 204 | 1.7 | 5.2 | 0.00 | 0.00 | 0.00 | 59 | |
| 20260509171355 | 57 | 234 | 1.7 | 6.1 | 0.00 | 0.00 | 0.00 | 59 | |
| 20260509170851 | 57 | 231 | 2.6 | 5.2 | 0.00 | 0.00 | 0.00 | 60 | |
| 20260509170341 | 57 | 188 | 0.0 | 5.2 | 0.00 | 0.00 | 0.00 | 61 | |
| 20260509165836 | 57 | 158 | 1.7 | 3.5 | 0.00 | 0.00 | 0.00 | 62 | |
| 20260509165330 | 57 | 272 | 6.1 | 8.7 | 0.00 | 0.00 | 0.00 | 60 | |
| 20260509164826 | 57 | 217 | 2.6 | 5.2 | 0.00 | 0.00 | 0.00 | 60 | |
| 20260509164323 | 57 | 210 | 3.5 | 7.8 | 0.00 | 0.00 | 0.00 | 60 | |
| 20260509163820 | 57 | 149 | 3.5 | 6.1 | 0.00 | 0.00 | 0.00 | 61 | |
| 20260509163317 | 57 | 196 | 3.5 | 3.5 | 0.00 | 0.00 | 0.00 | 61 | |
| 20260509162816 | 57 | 253 | 4.3 | 7.8 | 0.00 | 0.00 | 0.00 | 61 | |
| 20260509162314 | 57 | 197 | 3.5 | 3.5 | 0.00 | 0.00 | 0.00 | 63 | |
| 20260509161811 | 57 | 229 | 1.7 | 5.2 | 0.00 | 0.00 | 0.00 | 62 | |
| 20260509161307 | 57 | 184 | 0.0 | 2.6 | 0.00 | 0.00 | 0.00 | 66 | |
| 20260509160802 | 58 | 214 | 0.0 | 2.6 | 0.00 | 0.00 | 0.00 | 67 | |
| 20260509160259 | 56 | 180 | 0.0 | 2.6 | 0.00 | 0.00 | 0.00 | 69 | |
| 20260509155754 | 56 | 169 | 0.0 | 0.9 | 0.00 | 0.00 | 0.00 | 70 | |
| 20260509155251 | 55 | 197 | 1.7 | 2.6 | 0.00 | 0.00 | 0.00 | 70 | |
| 20260509154747 | 55 | 187 | 0.0 | 2.6 | 0.00 | 0.00 | 0.00 | 71 | |
| 20260509154244 | 55 | 252 | 3.5 | 5.2 | 0.00 | 0.00 | 0.00 | 71 | |
| 20260509153741 | 54 | 191 | 0.0 | 2.6 | 0.00 | 0.00 | 0.00 | 73 | |
| 20260509153237 | 54 | 209 | 0.9 | 2.6 | 0.00 | 0.00 | 0.00 | 74 | |
| 20260509152734 | 54 | 245 | 1.7 | 3.5 | 0.00 | 0.00 | 0.00 | 74 | |
| 20260509152230 | 55 | 226 | 0.9 | 0.9 | 0.00 | 0.00 | 0.00 | 73 | |
| 20260509151727 | 54 | 158 | 0.0 | 0.9 | 0.00 | 0.00 | 0.00 | 74 | |
| 20260509151224 | 54 | 148 | 0.0 | 0.0 | 0.00 | 0.00 | 0.00 | 76 | |
| 20260509150722 | 53 | 178 | 0.0 | 0.9 | 0.00 | 0.00 | 0.00 | 77 | |
| 20260509150220 | 53 | 242 | 2.6 | 2.6 | 0.00 | 0.00 | 0.00 | 78 | |
| 20260509145716 | 53 | 163 | 0.0 | 0.0 | 0.00 | 0.00 | 0.00 | 79 | |
| 20260509145211 | 53 | 170 | 0.0 | 0.0 | 0.00 | 0.00 | 0.00 | 79 | |
| 20260509144708 | 53 | 161 | 0.0 | 2.6 | 0.00 | 0.00 | 0.00 | 79 | |
| 20260509144205 | 52 | 203 | 1.7 | 2.6 | 0.00 | 0.00 | 0.00 | 80 | |
| 20260509143702 | 53 | 195 | 0.0 | 0.9 | 0.00 | 0.00 | 0.00 | 80 | |
| 20260509143159 | 52 | 196 | 0.0 | 0.9 | 0.00 | 0.00 | 0.00 | 80 | |
| 20260509142655 | 52 | 183 | 0.0 | 0.9 | 0.00 | 0.00 | 0.00 | 81 | |
| 20260509142152 | 52 | 164 | 0.0 | 0.0 | 0.00 | 0.00 | 0.00 | 81 | |
| 20260509141647 | 52 | 164 | 0.0 | 0.9 | 0.00 | 0.00 | 0.00 | 81 | |
| 20260509141144 | 51 | 196 | 0.9 | 0.9 | 0.00 | 0.00 | 0.00 | 82 | |
| 20260509140641 | 51 | 221 | 0.9 | 0.9 | 0.00 | 0.00 | 0.00 | 83 | |
| 20260509140139 | 51 | 227 | 0.9 | 2.6 | 0.00 | 0.00 | 0.00 | 84 | |
| 20260509135636 | 51 | 237 | 2.6 | 2.6 | 0.00 | 0.00 | 0.00 | 83 | |
| 20260509135134 | 51 | 212 | 1.7 | 3.5 | 0.00 | 0.00 | 0.00 | 83 | |
| 20260509134630 | 51 | 247 | 2.6 | 2.6 | 0.00 | 0.00 | 0.00 | 84 | |
| 20260509134128 | 51 | 228 | 1.7 | 3.5 | 0.00 | 0.00 | 0.00 | 84 | |
| 20260509133625 | 51 | 202 | 0.0 | 2.6 | 0.00 | 0.00 | 0.00 | 84 | |
| 20260509133122 | 50 | 222 | 0.9 | 3.5 | 0.00 | 0.00 | 0.00 | 84 | |
| 20260509132620 | 50 | 193 | 0.0 | 0.9 | 0.00 | 0.00 | 0.00 | 84 | |
| 20260509132119 | 50 | 191 | 0.0 | 0.0 | 0.00 | 0.00 | 0.00 | 85 | |
| 20260509131614 | 50 | 206 | 0.0 | 0.9 | 0.00 | 0.00 | 0.00 | 85 | |
| 20260509131112 | 50 | 202 | 0.0 | 0.0 | 0.00 | 0.00 | 0.00 | 85 | |
| 20260509130607 | 50 | 196 | 0.0 | 0.9 | 0.00 | 0.00 | 0.00 | 87 | |
| 20260509130104 | 50 | 194 | 0.0 | 0.9 | 0.00 | 0.00 | 0.00 | 87 | |
| 20260509125600 | 49 | 186 | 0.0 | 0.0 | 0.00 | 0.00 | 0.00 | 87 | |
| 20260509125057 | 50 | 170 | 0.0 | 0.0 | 0.00 | 0.00 | 0.00 | 88 | |
| 20260509124553 | 50 | 190 | 0.0 | 0.0 | 0.00 | 0.00 | 0.00 | 88 | |
| 20260509124051 | 49 | 190 | 0.0 | 0.0 | 0.00 | 0.00 | 0.00 | 88 | |
| 20260509123549 | 49 | 191 | 0.0 | 0.0 | 0.00 | 0.00 | 0.00 | 89 | |
| 20260509123045 | 49 | 192 | 0.0 | 0.0 | 0.00 | 0.00 | 0.00 | 88 | |
| 20260509122541 | 49 | 192 | 0.0 | 0.0 | 0.00 | 0.00 | 0.00 | 88 | |
| 20260509122038 | 49 | 193 | 0.0 | 0.0 | 0.00 | 0.00 | 0.00 | 88 | |
| 20260509121534 | 49 | 159 | 0.0 | 0.9 | 0.00 | 0.00 | 0.00 | 87 | |
| 20260509121032 | 49 | 166 | 0.0 | 0.0 | 0.00 | 0.00 | 0.00 | 87 | |
| 20260509120531 | 49 | 179 | 0.0 | 0.9 | 0.00 | 0.00 | 0.00 | 87 | |
| 20260509120029 | 49 | 159 | 0.0 | 0.9 | 0.00 | 0.00 | 0.00 | 87 | |
| 20260509115525 | 49 | 164 | 0.0 | 0.0 | 0.00 | 0.00 | 0.00 | 88 | |
| 20260509115023 | 49 | 164 | 0.0 | 0.0 | 0.00 | 0.00 | 0.00 | 89 | |
| 20260509114521 | 49 | 164 | 0.0 | 0.0 | 0.00 | 0.00 | 0.00 | 90 | |
| 20260509114020 | 49 | 164 | 0.0 | 0.0 | 0.00 | 0.00 | 0.00 | 90 | |
| 20260509113517 | 49 | 164 | 0.0 | 0.0 | 0.00 | 0.00 | 0.00 | 90 | |
| 20260509113015 | 49 | 164 | 0.0 | 0.0 | 0.00 | 0.00 | 0.00 | 90 | |
| 20260509112511 | 49 | 153 | 0.0 | 0.0 | 0.00 | 0.00 | 0.00 | 89 | |
| 20260509112008 | 49 | 152 | 0.0 | 0.9 | 0.00 | 0.00 | 0.00 | 88 | |
| 20260509111505 | 49 | 193 | 0.0 | 0.9 | 0.00 | 0.00 | 0.00 | 88 | |
| 20260509111002 | 49 | 198 | 0.0 | 0.0 | 0.00 | 0.00 | 0.00 | 88 | |
| 20260509110459 | 49 | 198 | 0.0 | 0.0 | 0.00 | 0.00 | 0.00 | 87 | |
| 20260509105956 | 49 | 198 | 0.0 | 0.0 | 0.00 | 0.00 | 0.00 | 87 | |
| 20260509105455 | 49 | 200 | 0.0 | 0.9 | 0.00 | 0.00 | 0.00 | 85 | |
| 20260509104951 | 49 | 170 | 0.0 | 0.0 | 0.00 | 0.00 | 0.00 | 86 | |
| 20260509104448 | 49 | 171 | 0.0 | 0.0 | 0.00 | 0.00 | 0.00 | 85 | |
| 20260509103946 | 49 | 161 | 0.0 | 0.0 | 0.00 | 0.00 | 0.00 | 85 | |
| 20260509103443 | 49 | 195 | 0.9 | 2.6 | 0.00 | 0.00 | 0.00 | 84 | |
| 20260509102941 | 49 | 195 | 0.9 | 2.6 | 0.00 | 0.00 | 0.00 | 83 | |
| 20260509102438 | 49 | 246 | 2.6 | 3.5 | 0.00 | 0.00 | 0.00 | 83 | |
| 20260509101934 | 49 | 207 | 2.6 | 5.2 | 0.00 | 0.00 | 0.00 | 82 | |
| 20260509101431 | 50 | 263 | 1.7 | 5.2 | 0.00 | 0.00 | 0.00 | 81 | |
| 20260509100928 | 50 | 183 | 1.7 | 2.6 | 0.00 | 0.00 | 0.00 | 80 | |
| 20260509100425 | 50 | 200 | 0.9 | 3.5 | 0.00 | 0.00 | 0.00 | 78 | |
| 20260509095922 | 51 | 145 | 0.9 | 5.2 | 0.00 | 0.00 | 0.00 | 76 | |
| 20260509095419 | 51 | 194 | 0.9 | 0.9 | 0.00 | 0.00 | 0.00 | 73 | |
| 20260509094916 | 51 | 197 | 0.0 | 3.5 | 0.00 | 0.00 | 0.00 | 72 | |
| 20260509094412 | 51 | 282 | 1.7 | 8.7 | 0.00 | 0.00 | 0.00 | 71 | |
| 20260509093910 | 52 | 196 | 2.6 | 6.1 | 0.00 | 0.00 | 0.00 | 70 | |
| 20260509093407 | 52 | 199 | 2.6 | 3.5 | 0.00 | 0.00 | 0.00 | 69 | |
| 20260509092906 | 52 | 227 | 1.7 | 7.8 | 0.00 | 0.00 | 0.00 | 68 | |
| 20260509092403 | 52 | 231 | 2.6 | 3.5 | 0.00 | 0.00 | 0.00 | 68 | |
| 20260509091901 | 51 | 215 | 1.7 | 3.5 | 0.00 | 0.00 | 0.00 | 68 | |
| 20260509091358 | 50 | 191 | 0.0 | 0.0 | 0.00 | 0.00 | 0.00 | 70 | |
| 20260509090855 | 51 | 157 | 0.0 | 0.9 | 0.00 | 0.00 | 0.00 | 72 | |
| 20260509090352 | 51 | 160 | 0.0 | 0.0 | 0.00 | 0.00 | 0.00 | 69 | |
| 20260509085850 | 51 | 163 | 0.0 | 0.0 | 0.00 | 0.00 | 0.00 | 68 | |
| 20260509085347 | 52 | 180 | 0.0 | 0.9 | 0.00 | 0.00 | 0.00 | 68 | |
| 20260509084843 | 52 | 203 | 0.0 | 2.6 | 0.00 | 0.00 | 0.00 | 67 | |
| 20260509084340 | 52 | 171 | 0.0 | 0.9 | 0.00 | 0.00 | 0.00 | 66 | |
| 20260509083838 | 53 | 236 | 1.7 | 2.6 | 0.00 | 0.00 | 0.00 | 65 | |
| 20260509083334 | 53 | 175 | 2.6 | 3.5 | 0.00 | 0.00 | 0.00 | 64 | |
| 20260509082831 | 53 | 231 | 0.0 | 5.2 | 0.00 | 0.00 | 0.00 | 64 | |
| 20260509082327 | 53 | 260 | 2.6 | 6.1 | 0.00 | 0.00 | 0.00 | 64 | |
| 20260509081825 | 53 | 250 | 2.6 | 5.2 | 0.00 | 0.00 | 0.00 | 63 | |
| 20260509081322 | 53 | 207 | 1.7 | 2.6 | 0.00 | 0.00 | 0.00 | 63 | |
| 20260509080820 | 53 | 268 | 4.3 | 5.2 | 0.00 | 0.00 | 0.00 | 63 | |
| 20260509080318 | 53 | 248 | 1.7 | 3.5 | 0.00 | 0.00 | 0.00 | 64 | |
| 20260509075816 | 53 | 217 | 0.9 | 0.9 | 0.00 | 0.00 | 0.00 | 64 | |
| 20260509075313 | 52 | 233 | 4.3 | 7.8 | 0.00 | 0.00 | 0.00 | 63 | |
| 20260509074809 | 52 | 197 | 0.0 | 0.0 | 0.00 | 0.00 | 0.00 | 70 | |
| 20260509074307 | 52 | 192 | 0.9 | 2.6 | 0.00 | 0.00 | 0.00 | 63 | |
| 20260509073803 | 52 | 247 | 1.7 | 3.5 | 0.00 | 0.00 | 0.00 | 64 | |
| 20260509073300 | 51 | 195 | 0.0 | 3.5 | 0.00 | 0.00 | 0.00 | 65 | |
| 20260509072756 | 50 | 246 | 3.5 | 9.6 | 0.00 | 0.00 | 0.00 | 65 | |
| 20260509072253 | 49 | 230 | 1.7 | 2.6 | 0.00 | 0.00 | 0.00 | 70 | |
| 20260509071750 | 48 | 199 | 0.0 | 0.9 | 0.00 | 0.00 | 0.00 | 74 | |
| 20260509071247 | 47 | 180 | 0.0 | 0.9 | 0.00 | 0.00 | 0.00 | 78 | |
| 20260509070744 | 47 | 175 | 0.0 | 0.0 | 0.00 | 0.00 | 0.00 | 81 | |
| 20260509070240 | 47 | 175 | 0.0 | 0.0 | 0.00 | 0.00 | 0.00 | 81 | |
| 20260509065737 | 46 | 175 | 0.0 | 0.0 | 0.00 | 0.00 | 0.00 | 80 | |
| 20260509065233 | 46 | 174 | 0.0 | 0.0 | 0.00 | 0.00 | 0.00 | 81 | |
| 20260509064729 | 47 | 185 | 0.0 | 0.0 | 0.00 | 0.00 | 0.00 | 78 | |
| 20260509064227 | 47 | 185 | 0.0 | 0.0 | 0.00 | 0.00 | 0.00 | 77 | |
| 20260509063724 | 48 | 186 | 0.0 | 0.0 | 0.00 | 0.00 | 0.00 | 76 | |
| 20260509063220 | 48 | 186 | 0.0 | 0.0 | 0.00 | 0.00 | 0.00 | 75 | |
| 20260509062718 | 48 | 186 | 0.0 | 0.0 | 0.00 | 0.00 | 0.00 | 74 | |
| 20260509062215 | 48 | 186 | 0.0 | 0.0 | 0.00 | 0.00 | 0.00 | 75 | |
| 20260509061712 | 48 | 194 | 0.0 | 0.0 | 0.00 | 0.00 | 0.00 | 75 | |
| 20260509061210 | 48 | 194 | 0.0 | 0.0 | 0.00 | 0.00 | 0.00 | 74 | |
| 20260509060707 | 49 | 194 | 0.0 | 0.0 | 0.00 | 0.00 | 0.00 | 73 | |
| 20260509060203 | 49 | 194 | 0.0 | 0.0 | 0.00 | 0.00 | 0.00 | 71 | |
| 20260509055659 | 49 | 194 | 0.0 | 0.0 | 0.00 | 0.00 | 0.00 | 71 | |
| 20260509055155 | 49 | 194 | 0.0 | 0.0 | 0.00 | 0.00 | 0.00 | 69 | |
| 20260509054651 | 50 | 199 | 0.0 | 0.0 | 0.00 | 0.00 | 0.00 | 69 | |
| 20260509054149 | 49 | 199 | 0.0 | 0.0 | 0.00 | 0.00 | 0.00 | 71 | |
| 20260509053647 | 49 | 188 | 0.0 | 0.0 | 0.00 | 0.00 | 0.00 | 72 | |
| 20260509053144 | 49 | 188 | 0.0 | 0.0 | 0.00 | 0.00 | 0.00 | 75 | |
| 20260509052642 | 50 | 188 | 0.0 | 0.0 | 0.00 | 0.00 | 0.00 | 74 | |
| 20260509052139 | 51 | 188 | 0.0 | 0.0 | 0.00 | 0.00 | 0.00 | 72 | |
| 20260509051637 | 51 | 188 | 0.0 | 0.0 | 0.00 | 0.00 | 0.00 | 67 | |
| 20260509051134 | 51 | 188 | 0.0 | 0.0 | 0.00 | 0.00 | 0.00 | 67 | |
| 20260509050631 | 51 | 188 | 0.0 | 0.0 | 0.00 | 0.00 | 0.00 | 69 | |
| 20260509050127 | 51 | 188 | 0.0 | 0.9 | 0.00 | 0.00 | 0.00 | 68 | |
| 20260509045625 | 51 | 160 | 0.0 | 0.0 | 0.00 | 0.00 | 0.00 | 70 | |
| 20260509045121 | 51 | 160 | 0.0 | 0.0 | 0.00 | 0.00 | 0.00 | 68 | |
| 20260509044619 | 51 | 160 | 0.0 | 0.0 | 0.00 | 0.00 | 0.00 | 68 | |
| 20260509044116 | 51 | 163 | 0.0 | 0.0 | 0.00 | 0.00 | 0.00 | 70 | |
| 20260509043612 | 51 | 163 | 0.0 | 0.0 | 0.00 | 0.00 | 0.00 | 71 | |
| 20260509043108 | 51 | 162 | 0.0 | 0.0 | 0.00 | 0.00 | 0.00 | 71 | |
| 20260509042605 | 51 | 162 | 0.0 | 0.0 | 0.00 | 0.00 | 0.00 | 71 | |
| 20260509042100 | 51 | 162 | 0.0 | 0.0 | 0.00 | 0.00 | 0.00 | 68 | |
| 20260509041558 | 51 | 162 | 0.0 | 0.0 | 0.00 | 0.00 | 0.00 | 66 | |
| 20260509041055 | 51 | 162 | 0.0 | 0.0 | 0.00 | 0.00 | 0.00 | 66 | |
| 20260509040553 | 51 | 162 | 0.0 | 0.0 | 0.00 | 0.00 | 0.00 | 66 | |
| 20260509040050 | 51 | 162 | 0.0 | 0.0 | 0.00 | 0.00 | 0.00 | 67 | |
| 20260509035547 | 51 | 169 | 0.0 | 0.0 | 0.00 | 0.00 | 0.00 | 68 | |
| 20260509035043 | 51 | 169 | 0.0 | 0.0 | 0.00 | 0.00 | 0.00 | 68 | |
| 20260509034542 | 51 | 169 | 0.0 | 0.0 | 0.00 | 0.00 | 0.00 | 67 | |
| 20260509034038 | 52 | 174 | 0.0 | 0.0 | 0.00 | 0.00 | 0.00 | 67 | |
| 20260509033536 | 52 | 174 | 0.0 | 0.0 | 0.00 | 0.00 | 0.00 | 68 | |
| 20260509033032 | 52 | 190 | 0.0 | 0.0 | 0.00 | 0.00 | 0.00 | 68 | |
| 20260509032529 | 53 | 190 | 0.0 | 0.0 | 0.00 | 0.00 | 0.00 | 66 | |
| 20260509032027 | 53 | 190 | 0.0 | 0.0 | 0.00 | 0.00 | 0.00 | 61 | |
| 20260509031524 | 53 | 191 | 0.0 | 0.0 | 0.00 | 0.00 | 0.00 | 61 | |
| 20260509031021 | 53 | 191 | 0.0 | 0.0 | 0.00 | 0.00 | 0.00 | 58 | |
| 20260509030519 | 53 | 174 | 0.0 | 0.0 | 0.00 | 0.00 | 0.00 | 59 | |
| 20260509030016 | 53 | 174 | 0.0 | 0.0 | 0.00 | 0.00 | 0.00 | 60 | |
| 20260509025512 | 53 | 174 | 0.0 | 0.0 | 0.00 | 0.00 | 0.00 | 62 | |
| 20260509025007 | 53 | 174 | 0.0 | 0.0 | 0.00 | 0.00 | 0.00 | 62 | |
| 20260509024503 | 53 | 174 | 0.0 | 0.0 | 0.00 | 0.00 | 0.00 | 60 | |
| 20260509024000 | 53 | 174 | 0.0 | 0.0 | 0.00 | 0.00 | 0.00 | 61 | |
| 20260509023458 | 53 | 178 | 0.9 | 0.9 | 0.00 | 0.00 | 0.00 | 60 | |
| 20260509022954 | 52 | 160 | 0.0 | 0.0 | 0.00 | 0.00 | 0.00 | 63 | |
| 20260509022451 | 52 | 160 | 0.0 | 0.0 | 0.00 | 0.00 | 0.00 | 64 | |
| 20260509021944 | 53 | 160 | 0.0 | 0.0 | 0.00 | 0.00 | 0.00 | 63 | |
| 20260509021440 | 53 | 160 | 0.0 | 0.0 | 0.00 | 0.00 | 0.00 | 62 | |
| 20260509020937 | 53 | 160 | 0.0 | 0.0 | 0.00 | 0.00 | 0.00 | 62 | |
| 20260509020436 | 53 | 156 | 0.0 | 0.0 | 0.00 | 0.00 | 0.00 | 62 | |
| 20260509015932 | 53 | 156 | 0.0 | 0.0 | 0.00 | 0.00 | 0.00 | 62 | |
| 20260509015431 | 53 | 156 | 0.0 | 0.0 | 0.00 | 0.00 | 0.00 | 61 | |
| 20260509014927 | 54 | 156 | 0.0 | 0.0 | 0.00 | 0.00 | 0.00 | 61 | |
| 20260509014424 | 54 | 155 | 0.0 | 0.0 | 0.00 | 0.00 | 0.00 | 61 | |
| 20260509013921 | 54 | 155 | 0.0 | 0.0 | 0.00 | 0.00 | 0.00 | 59 | |
| 20260509013418 | 54 | 155 | 0.0 | 0.0 | 0.00 | 0.00 | 0.00 | 58 | |
| 20260509012913 | 54 | 169 | 0.0 | 0.0 | 0.00 | 0.00 | 0.00 | 58 | |
| 20260509012410 | 54 | 169 | 0.0 | 0.0 | 0.00 | 0.00 | 0.00 | 58 | |
| 20260509011907 | 54 | 164 | 0.0 | 0.0 | 0.00 | 0.00 | 0.00 | 57 | |
| 20260509011405 | 54 | 164 | 0.0 | 0.0 | 0.00 | 0.00 | 0.00 | 58 | |
| 20260509010903 | 54 | 160 | 0.0 | 0.0 | 0.00 | 0.00 | 0.00 | 58 | |
| 20260509010400 | 54 | 160 | 0.0 | 0.0 | 0.00 | 0.00 | 0.00 | 57 | |
| 20260509005856 | 54 | 160 | 0.0 | 0.0 | 0.00 | 0.00 | 0.00 | 57 | |
| 20260509005354 | 54 | 160 | 0.0 | 0.0 | 0.00 | 0.00 | 0.00 | 57 | |
| 20260509004849 | 55 | 160 | 0.0 | 0.0 | 0.00 | 0.00 | 0.00 | 58 | |
| 20260509004345 | 55 | 160 | 0.0 | 0.0 | 0.00 | 0.00 | 0.00 | 58 | |
| 20260509003843 | 56 | 162 | 0.0 | 0.0 | 0.00 | 0.00 | 0.00 | 56 | |
| 20260509003341 | 56 | 174 | 0.0 | 0.0 | 0.00 | 0.00 | 0.00 | 53 | |
| 20260509002837 | 57 | 208 | 0.9 | 2.6 | 0.00 | 0.00 | 0.00 | 52 | |
| 20260509002335 | 57 | 204 | 1.7 | 2.6 | 0.00 | 0.00 | 0.00 | 51 | |
| 20260509001833 | 57 | 237 | 1.7 | 2.6 | 0.00 | 0.00 | 0.00 | 51 | |
| 20260509001328 | 57 | 205 | 0.9 | 2.6 | 0.00 | 0.00 | 0.00 | 51 | |
| 20260509000826 | 57 | 217 | 3.5 | 3.5 | 0.00 | 0.00 | 0.00 | 51 | |
| 20260509000325 | 57 | 164 | 1.7 | 3.5 | 0.00 | 0.00 | 0.00 | 50 | |
| 20260508235820 | 57 | 225 | 0.9 | 3.5 | 0.00 | 0.00 | 0.00 | 51 | |
| 20260508235317 | 57 | 222 | 0.9 | 2.6 | 0.00 | 0.00 | 0.00 | 50 | |
| 20260508234814 | 58 | 255 | 1.7 | 3.5 | 0.00 | 0.00 | 0.00 | 50 | |
| 20260508234310 | 58 | 209 | 2.6 | 6.1 | 0.00 | 0.00 | 0.00 | 49 | |
| 20260508233809 | 58 | 193 | 1.7 | 3.5 | 0.00 | 0.00 | 0.00 | 50 | |
| 20260508233308 | 59 | 204 | 0.0 | 5.2 | 0.00 | 0.00 | 0.00 | 49 | |
| 20260508232804 | 59 | 248 | 2.6 | 5.2 | 0.00 | 0.00 | 0.00 | 47 | |
| 20260508232300 | 60 | 235 | 5.2 | 7.8 | 0.00 | 0.00 | 0.00 | 47 | |
| 20260508231759 | 60 | 263 | 4.3 | 7.8 | 0.00 | 0.00 | 0.00 | 47 | |
| 20260508231255 | 60 | 218 | 2.6 | 7.8 | 0.00 | 0.00 | 0.00 | 47 | |
| 20260508230752 | 60 | 252 | 3.5 | 7.8 | 0.00 | 0.00 | 0.00 | 47 | |
| 20260508230248 | 60 | 289 | 7.8 | 8.7 | 0.00 | 0.00 | 0.00 | 46 | |
| 20260508225746 | 60 | 259 | 5.2 | 9.6 | 0.00 | 0.00 | 0.00 | 46 | |
| 20260508225242 | 60 | 277 | 3.5 | 5.2 | 0.00 | 0.00 | 0.00 | 47 | |
| 20260508224740 | 59 | 193 | 4.3 | 7.8 | 0.00 | 0.00 | 0.00 | 47 | |
| 20260508224237 | 60 | 239 | 7.8 | 9.6 | 0.00 | 0.00 | 0.00 | 46 | |
| 20260508223735 | 61 | 278 | 5.2 | 7.8 | 0.00 | 0.00 | 0.00 | 46 | |
| 20260508223232 | 61 | 243 | 2.6 | 3.5 | 0.00 | 0.00 | 0.00 | 47 |